Temp
95 93 83 84 83 84 84 83 83 83 83 82 82 82 83 83 83 83 83 84 84 84 85 85 85 84 84 84 84 84 84 84 84 84 83 83 83 83 83 84 85 91 82
98 94 82 83 84 84 84 83 83 83 83 83 83 83 83 83 83 84 84 84 84 85 85 85 85 84 84 84 84 84 84 84 84 84 84 84 84 83 83 85 85 87 83
97 95 91 83 84 84 84 83 83 83 83 83 83 83 83 83 84 84 84 84 84 85 85 85 85 84 84 84 84 84 84 84 84 84 85 95 91 83 83 83 82 82 82
98 96 94 82 83 83 83 83 83 83 83 83 83 83 83 83 84 84 84 84 84 85 85 85 85 84 84 84 84 84 84 84 84 84 95 97 94 83 83 83 83 82 82
97 99 92 83 83 83 83 83 83 83 83 83 83 84 84 84 84 84 84 84 84 84 85 85 85 84 84 84 83 83 83 83 83 88 95 95 94 85 83 82 82 82 84
98 100 85 83 83 83 83 83 83 83 83 83 84 84 84 84 84 85 85 84 84 84 85 85 85 84 84 84 83 83 83 83 83 95 93 91 94 83 83 84 83 82 82
98 99 91 83 83 83 83 83 83 83 83 83 84 84 84 84 84 84 84 84 84 84 84 85 85 84 84 83 83 83 83 83 94 95 94 94 90 82 83 83 82 82 82
97 98 92 84 83 83 83 83 83 83 84 84 84 84 84 84 84 84 84 83 84 84 84 84 84 84 84 84 83 83 83 84 92 94 94 94 82 82 83 82 82 82 81
98 96 92 90 87 83 83 83 83 84 84 84 84 84 84 83 84 84 83 83 84 84 83 84 84 84 84 83 83 83 83 83 95 97 96 95 80 82 83 82 82 82 81
94 95 92 90 89 89 89 83 83 83 84 84 84 83 83 84 84 84 82 82 83 84 84 84 84 84 83 83 83 83 83 83 97 97 97 92 81 82 83 82 82 82 82
92 93 91 91 89 89 89 88 84 84 84 84 85 84 84 92 89 86 85 83 83 83 83 84 84 83 83 83 83 83 83 99 98 99 100 80 81 82 82 82 82 81 81
89 92 93 91 90 89 93 86 87 89 91 86 85 87 86 92 91 89 87 83 84 83 82 83 83 83 84 94 91 85 94 97 98 98 98 80 81 82 83 82 81 81 81
90 92 91 91 90 91 92 88 91 92 87 87 86 84 89 85 83 83 88 89 87 83 87 88 88 89 92 96 96 95 96 96 100 100 89 80 80 82 82 82 81 81 81
90 91 92 91 88 89 92 89 92 94 93 92 85 86 82 86 81 84 87 91 89 84 82 90 92 92 92 92 94 93 94 96 99 100 93 81 80 81 82 82 82 81 81
88 89 88 88 86 87 88 92 92 92 93 93 88 88 88 86 84 84 83 89 90 85 83 86 91 88 89 90 91 91 93 94 95 97 98 82 81 80 82 82 82 82 82
89 89 90 85 84 87 88 88 89 91 93 93 93 91 88 88 85 84 81 85 89 91 85 85 88 88 89 91 90 91 91 93 94 94 96 96 81 80 81 82 82 82 82
90 90 89 87 84 86 86 88 89 92 93 93 93 90 88 88 87 88 87 89 88 89 88 88 84 89 89 90 89 91 92 92 94 93 94 97 92 80 80 81 81 82 82
90 88 89 90 84 83 86 88 90 92 92 93 93 93 86 88 88 87 91 90 92 89 89 88 88 89 89 89 88 89 91 92 92 92 94 95 97 99 83 81 80 81 82
89 87 86 87 82 84 85 88 88 88 90 92 93 93 88 88 89 89 91 91 89 91 90 90 89 88 87 88 89 90 91 92 93 95 93 94 94 95 98 83 80 80 82
90 88 86 87 84 82 84 84 89 89 89 92 92 93 89 88 87 87 91 89 88 90 90 90 87 88 88 89 91 91 91 93 94 94 93 96 96 95 95 93 93 91 80
90 87 85 84 83 82 84 83 86 86 88 89 87 88 88 88 88 86 90 85 82 88 88 86 86 84 86 88 87 87 89 91 91 93 95 96 95 96 94 95 94 95 95
90 86 85 84 84 84 86 87 89 88 89 90 90 88 88 87 87 87 86 88 84 82 82 81 84 87 87 88 84 86 83 88 92 93 94 95 94 96 96 95 93 91 92
89 85 84 83 84 84 86 88 87 88 88 88 88 88 88 87 87 85 86 86 87 86 81 83 81 83 87 88 86 86 82 81 88 92 91 93 92 95 96 95 93 92 90
90 89 84 83 83 84 85 86 83 85 84 88 88 89 89 86 86 86 85 85 84 83 82 85 87 82 80 78 82 85 83 81 69 73 86 90 91 88 89 92 94 93 91
90 91 86 82 80 82 82 84 86 83 88 89 90 87 85 86 86 88 86 85 85 84 83 84 83 81 80 79 78 79 79 83 79 76 79 83 89 94 95 94 94 95 94
88 89 87 82 81 80 81 82 82 84 85 88 86 88 88 89 88 86 87 86 86 86 84 83 84 83 84 83 80 78 81 78 76 76 75 80 86 91 94 93 93 94 95
MSLP
1009.34 1010.68 1011.84 1011.95 1012.06 1012.26 1012.71 1013.11 1013.32 1013.63 1013.93 1014.16 1014.47 1014.80 1015.25 1015.48 1015.77 1016.04 1016.25 1016.54 1016.78 1016.98 1017.11 1017.32 1017.39 1017.51 1017.62 1017.62 1017.73 1017.85 1017.84 1018.10 1018.26 1018.45 1018.64 1018.73 1019.00 1019.17 1019.23 1019.20 1018.94 1019.09 1019.90
1009.16 1010.72 1011.93 1012.12 1012.33 1012.53 1012.88 1013.27 1013.59 1013.94 1014.19 1014.55 1014.86 1015.15 1015.45 1015.79 1016.02 1016.38 1016.55 1016.78 1016.94 1017.21 1017.36 1017.52 1017.65 1017.71 1017.87 1017.97 1018.04 1018.22 1018.20 1018.28 1018.62 1018.74 1018.79 1018.87 1019.23 1019.39 1019.44 1019.36 1019.19 1019.83 1020.09
1009.22 1010.61 1011.70 1012.28 1012.51 1012.75 1013.10 1013.50 1013.91 1014.27 1014.53 1014.84 1015.16 1015.54 1015.83 1016.12 1016.36 1016.61 1016.85 1017.04 1017.25 1017.38 1017.61 1017.69 1017.89 1018.01 1018.14 1018.26 1018.32 1018.52 1018.56 1018.69 1018.93 1018.97 1018.65 1018.00 1018.90 1019.66 1019.77 1019.84 1020.05 1020.27 1020.46
1009.12 1010.35 1011.35 1012.51 1012.75 1012.96 1013.34 1013.77 1014.15 1014.46 1014.81 1015.09 1015.40 1015.76 1016.07 1016.39 1016.64 1016.89 1017.03 1017.25 1017.56 1017.63 1017.82 1017.92 1018.03 1018.22 1018.41 1018.55 1018.62 1018.85 1018.96 1019.09 1019.22 1018.76 1017.91 1018.10 1018.75 1019.91 1020.02 1020.14 1020.26 1020.46 1020.66
1009.41 1009.90 1011.43 1012.49 1012.89 1013.21 1013.55 1013.92 1014.27 1014.72 1015.00 1015.25 1015.57 1015.94 1016.30 1016.57 1016.86 1017.12 1017.25 1017.51 1017.75 1017.96 1018.08 1018.22 1018.33 1018.50 1018.68 1018.80 1018.98 1019.13 1019.17 1019.28 1019.25 1018.66 1018.26 1018.15 1018.52 1020.05 1020.28 1020.40 1020.51 1020.59 1020.59
1009.38 1009.86 1012.07 1012.50 1012.92 1013.38 1013.76 1014.05 1014.41 1014.87 1015.22 1015.48 1015.74 1016.07 1016.48 1016.79 1017.02 1017.23 1017.39 1017.66 1017.99 1018.15 1018.33 1018.45 1018.54 1018.72 1018.91 1019.05 1019.24 1019.49 1019.48 1019.51 1019.15 1018.36 1018.64 1019.01 1018.66 1020.20 1020.49 1020.47 1020.59 1020.83 1021.01
1009.53 1010.14 1012.05 1012.73 1013.05 1013.47 1013.91 1014.24 1014.55 1015.00 1015.42 1015.67 1015.90 1016.18 1016.47 1016.91 1017.21 1017.39 1017.60 1017.85 1018.14 1018.36 1018.46 1018.46 1018.70 1018.88 1019.03 1019.31 1019.47 1019.75 1019.69 1019.61 1018.56 1018.45 1018.70 1018.57 1019.68 1020.42 1020.60 1020.77 1020.98 1021.15 1021.20
1009.67 1010.39 1011.87 1013.06 1013.42 1013.68 1014.05 1014.47 1014.78 1015.14 1015.52 1015.88 1016.09 1016.30 1016.61 1016.93 1017.34 1017.61 1017.81 1018.13 1018.31 1018.47 1018.60 1018.69 1018.87 1019.07 1019.18 1019.51 1019.71 1019.89 1019.86 1019.69 1018.74 1018.73 1018.97 1018.92 1020.31 1020.58 1020.77 1021.00 1021.20 1021.31 1021.39
1009.93 1010.62 1011.91 1012.84 1013.59 1014.02 1014.27 1014.67 1015.01 1015.32 1015.69 1016.04 1016.37 1016.62 1016.90 1017.11 1017.41 1017.74 1018.00 1018.26 1018.47 1018.54 1018.87 1018.93 1019.08 1019.27 1019.44 1019.62 1019.85 1019.95 1020.06 1019.89 1018.70 1018.63 1018.84 1019.12 1020.59 1020.65 1020.79 1021.06 1021.28 1021.45 1021.62
1010.31 1010.81 1011.68 1012.59 1013.35 1013.82 1014.31 1014.83 1015.17 1015.49 1015.81 1016.21 1016.48 1016.78 1017.12 1017.30 1017.47 1017.72 1018.14 1018.36 1018.48 1018.70 1018.94 1019.14 1019.25 1019.52 1019.71 1019.84 1019.97 1020.09 1020.15 1019.96 1018.43 1018.75 1018.83 1019.56 1020.57 1020.79 1020.84 1021.07 1021.31 1021.47 1021.63
1010.35 1010.91 1011.54 1012.25 1013.07 1013.63 1014.07 1014.73 1015.30 1015.62 1015.85 1016.15 1016.44 1016.72 1017.12 1016.79 1017.16 1017.62 1017.87 1018.21 1018.53 1018.82 1019.02 1019.24 1019.42 1019.67 1019.92 1020.03 1020.12 1020.16 1019.93 1018.31 1018.37 1018.30 1018.43 1020.15 1020.65 1020.83 1020.82 1021.07 1021.25 1021.40 1021.55
1009.82 1010.47 1011.29 1011.94 1012.63 1013.30 1013.46 1014.40 1014.83 1015.10 1015.40 1015.95 1016.27 1016.55 1016.81 1016.16 1016.56 1017.11 1017.62 1018.22 1018.43 1018.84 1019.12 1019.37 1019.56 1019.78 1019.94 1019.03 1019.57 1020.10 1018.92 1018.47 1018.58 1018.50 1018.53 1020.22 1020.70 1020.81 1020.86 1021.00 1021.16 1021.34 1021.48
1009.46 1010.19 1010.95 1011.79 1012.30 1012.92 1012.99 1014.04 1014.20 1014.42 1015.15 1015.43 1015.99 1016.24 1016.30 1016.74 1017.29 1017.51 1017.33 1017.75 1018.29 1018.89 1018.81 1019.09 1019.40 1019.34 1018.93 1018.22 1018.43 1018.75 1018.50 1018.80 1018.26 1018.36 1019.14 1020.13 1020.59 1020.76 1020.81 1020.87 1021.06 1021.26 1021.38
1009.17 1009.97 1010.84 1011.59 1012.31 1012.70 1012.86 1013.69 1013.79 1013.69 1014.17 1014.62 1015.77 1016.01 1016.31 1016.48 1017.30 1017.40 1017.49 1017.17 1017.65 1018.46 1018.62 1018.32 1018.23 1018.30 1018.66 1018.90 1018.61 1018.60 1018.84 1018.66 1018.32 1018.29 1018.67 1019.82 1020.27 1020.49 1020.60 1020.69 1020.88 1021.09 1021.25
1009.07 1009.92 1010.90 1011.60 1012.27 1012.75 1013.02 1013.09 1013.28 1013.64 1013.98 1014.24 1015.09 1015.79 1015.99 1016.30 1016.88 1017.35 1017.70 1017.36 1017.40 1018.17 1018.48 1018.30 1017.91 1018.54 1018.91 1019.02 1019.07 1019.06 1018.76 1018.74 1018.70 1018.55 1018.31 1019.22 1019.78 1020.09 1020.31 1020.47 1020.60 1020.80 1021.02
1008.92 1009.60 1010.65 1011.79 1012.32 1012.54 1013.02 1013.31 1013.64 1013.85 1013.88 1014.20 1014.36 1015.10 1015.78 1015.99 1016.45 1016.93 1017.35 1017.30 1017.13 1017.30 1018.19 1018.46 1018.22 1018.40 1018.72 1018.79 1018.93 1018.94 1018.86 1018.70 1018.64 1018.61 1018.26 1018.13 1019.20 1019.64 1019.99 1020.23 1020.32 1020.49 1020.71
1008.48 1009.36 1010.11 1011.23 1012.24 1012.52 1012.91 1013.37 1013.64 1013.68 1013.94 1014.07 1014.18 1014.90 1015.64 1015.81 1016.02 1016.17 1016.55 1016.57 1017.00 1017.25 1017.58 1017.94 1018.54 1018.21 1018.41 1018.54 1018.72 1018.67 1018.69 1018.73 1018.46 1018.51 1018.57 1017.98 1018.26 1019.20 1019.61 1019.91 1020.15 1020.22 1020.31
1008.04 1008.87 1009.79 1010.65 1011.72 1012.38 1012.59 1012.86 1012.99 1013.09 1013.70 1013.86 1014.16 1014.40 1015.43 1015.71 1015.96 1016.34 1015.84 1016.22 1016.21 1016.89 1017.29 1017.49 1017.84 1017.78 1018.07 1018.19 1018.43 1018.47 1018.23 1018.33 1018.32 1018.44 1018.37 1018.11 1017.71 1017.35 1018.79 1019.31 1019.69 1019.88 1019.98
1007.97 1008.72 1009.42 1010.17 1011.33 1011.93 1012.40 1012.54 1012.85 1013.11 1013.40 1013.46 1013.79 1014.12 1014.89 1015.51 1015.77 1015.96 1015.75 1015.85 1016.48 1016.31 1016.52 1016.73 1017.17 1017.46 1017.65 1017.86 1017.90 1018.01 1018.04 1018.00 1017.87 1017.78 1017.82 1017.87 1018.03 1018.02 1017.42 1018.20 1018.94 1019.38 1019.55
1007.88 1008.64 1009.30 1009.84 1010.68 1011.45 1012.21 1012.63 1012.62 1012.92 1013.24 1013.17 1013.30 1013.56 1014.30 1015.03 1015.34 1015.83 1015.39 1015.65 1016.36 1016.22 1016.24 1016.41 1016.75 1017.13 1017.32 1017.23 1017.27 1017.12 1017.52 1017.55 1017.39 1017.29 1017.36 1017.45 1017.37 1017.58 1017.70 1017.80 1018.03 1018.15 1018.67
1007.31 1008.17 1008.92 1009.49 1010.28 1011.15 1011.21 1011.72 1011.71 1012.13 1012.66 1012.85 1013.58 1013.67 1013.89 1014.35 1014.74 1015.18 1015.08 1015.42 1016.34 1015.81 1015.87 1016.45 1016.78 1016.96 1016.93 1017.08 1017.10 1017.12 1017.05 1017.22 1017.20 1016.99 1016.71 1016.59 1016.53 1016.78 1017.23 1017.40 1017.59 1017.37 1017.23
1006.34 1007.37 1008.27 1008.93 1009.65 1010.38 1010.65 1010.69 1010.87 1011.42 1011.84 1012.13 1012.53 1012.99 1013.45 1013.89 1014.17 1014.53 1014.83 1014.83 1015.62 1016.01 1016.22 1016.53 1016.50 1016.24 1016.47 1016.64 1016.72 1016.48 1016.11 1015.96 1016.04 1016.35 1016.40 1016.25 1016.28 1016.28 1016.32 1016.59 1016.96 1017.18 1017.24
1005.40 1006.52 1007.58 1008.35 1008.96 1009.61 1009.94 1010.48 1010.93 1011.18 1011.48 1011.75 1011.93 1012.37 1012.79 1013.19 1013.45 1013.86 1014.20 1014.60 1014.69 1015.22 1015.71 1015.89 1016.34 1016.21 1015.67 1016.05 1016.63 1016.05 1015.60 1015.36 1015.17 1015.09 1015.57 1015.81 1015.89 1015.83 1015.63 1015.75 1016.10 1016.38 1016.73
1005.29 1006.09 1007.22 1007.90 1008.36 1008.86 1009.37 1009.45 1009.89 1009.99 1009.99 1010.26 1010.93 1011.43 1011.94 1012.60 1012.94 1013.26 1013.64 1013.86 1014.44 1014.91 1015.02 1015.21 1015.44 1016.02 1016.19 1016.15 1016.23 1016.54 1016.56 1016.65 1016.72 1016.47 1015.49 1015.41 1015.86 1016.02 1015.89 1015.82 1015.55 1015.68 1016.01
1005.64 1005.87 1006.78 1007.46 1008.04 1008.44 1008.86 1008.91 1009.02 1009.44 1009.35 1009.69 1010.08 1010.55 1011.31 1011.77 1012.25 1012.43 1012.78 1013.17 1013.62 1014.20 1014.65 1014.92 1015.12 1015.33 1015.68 1015.95 1016.21 1016.16 1016.51 1016.55 1016.74 1016.86 1015.73 1015.32 1014.88 1014.59 1014.80 1014.89 1015.05 1014.96 1015.09
1006.26 1006.17 1006.49 1007.10 1007.62 1008.01 1008.28 1008.57 1008.52 1008.51 1008.69 1008.69 1009.23 1009.64 1010.13 1010.60 1011.12 1011.74 1012.01 1012.42 1012.69 1013.02 1013.46 1014.01 1014.32 1014.73 1014.96 1015.26 1015.65 1015.97 1015.89 1015.79 1016.09 1016.09 1016.00 1015.61 1014.49 1013.89 1014.04 1014.51 1014.57 1014.43 1014.50
Wind_Speed
16 19 14 13 13 16 17 17 18 17 18 19 19 19 18 19 19 17 17 15 14 12 12 12 13 13 13 15 15 15 16 15 14 15 14 15 15 15 14 12 15 17 15
20 20 15 15 15 17 18 18 18 17 18 19 18 18 18 18 18 17 16 15 14 13 12 12 12 13 13 13 13 13 14 15 14 15 15 16 16 14 12 11 17 14 15
21 20 19 16 16 18 18 19 19 18 18 18 17 18 17 16 16 16 15 14 13 13 12 12 11 11 11 11 12 11 13 14 13 12 14 11 14 12 12 13 14 14 13
21 20 20 16 17 18 19 18 19 18 19 17 16 16 17 15 14 14 15 14 12 12 12 11 11 10 9 10 10 12 12 13 10 12 8 11 13 12 11 13 12 12 13
19 20 21 17 18 19 19 19 18 18 17 17 16 16 16 16 15 14 14 12 12 11 11 10 11 10 10 10 11 10 11 11 7 10 8 7 12 12 12 12 13 12 9
19 20 22 20 19 18 18 18 18 18 16 17 16 16 15 15 14 13 13 12 10 10 10 10 9 11 10 10 9 9 9 8 12 8 8 6 10 12 10 7 10 12 11
17 18 20 19 18 18 17 18 18 17 16 16 16 16 15 14 12 11 13 13 11 10 10 9 10 10 9 10 9 8 9 4 3 7 8 6 12 9 9 9 10 9 10
17 18 19 18 17 18 18 17 17 18 17 16 15 15 14 13 12 11 11 12 11 10 9 10 10 10 11 10 10 8 7 6 7 6 7 6 11 9 9 8 7 7 8
16 17 17 17 17 18 17 17 16 16 16 16 15 13 13 14 12 12 12 11 11 10 10 11 10 10 11 11 8 7 3 5 8 6 6 7 8 7 9 9 7 6 6
15 15 16 16 16 15 15 16 16 15 16 16 16 15 13 13 14 14 11 10 11 11 10 12 11 11 10 10 8 6 3 8 9 7 4 9 9 6 8 9 7 6 5
15 16 15 16 15 15 14 15 15 17 17 16 14 15 13 10 12 12 11 13 10 10 10 11 11 11 9 8 6 5 8 4 6 4 4 12 8 5 8 8 6 6 5
20 20 17 16 16 15 12 14 13 13 12 11 10 12 8 7 8 9 9 11 10 10 10 10 11 10 10 9 8 7 9 5 3 4 6 12 8 8 7 7 7 6 6
21 17 18 17 16 16 12 9 8 9 7 8 13 12 12 7 4 6 5 8 8 8 7 10 10 8 10 6 5 6 4 4 3 3 11 12 10 9 9 8 8 8 7
22 20 18 18 15 15 10 10 11 9 9 8 9 10 4 7 6 5 5 6 6 5 6 7 7 8 9 6 6 5 6 5 3 2 9 13 12 12 12 11 10 9 9
20 20 19 16 15 13 12 10 9 9 9 10 11 11 10 7 7 7 6 6 7 9 5 5 5 5 6 7 7 7 7 6 5 4 4 15 13 13 14 13 12 12 11
20 20 20 18 14 15 13 11 9 9 9 9 10 11 12 9 9 9 7 8 6 7 9 8 4 7 7 8 8 7 7 6 6 5 6 5 13 12 13 14 13 13 13
18 19 20 20 17 17 15 12 10 9 9 9 8 10 13 11 9 9 9 8 8 6 7 6 6 6 7 7 7 7 7 8 7 7 7 5 9 12 12 14 13 13 14
18 20 19 17 19 15 16 13 10 9 9 8 8 9 9 12 10 10 8 9 8 9 9 9 9 7 8 7 7 7 7 8 7 8 8 6 5 5 14 15 14 14 14
17 18 19 20 18 19 16 12 12 11 9 9 9 9 12 12 12 10 9 8 9 9 9 8 8 7 8 8 8 8 8 8 9 9 10 8 7 7 7 16 17 14 15
16 17 18 17 19 17 13 12 11 11 10 9 9 10 11 11 12 11 9 9 10 9 9 9 10 9 8 8 8 8 8 9 10 9 9 10 10 9 9 9 8 11 19
16 17 18 19 18 15 14 14 13 12 11 11 9 12 12 12 14 13 11 9 9 10 10 11 10 10 9 8 8 8 8 10 11 10 10 11 11 9 10 9 8 8 7
17 18 19 19 19 17 14 12 12 12 12 12 12 14 14 15 15 13 13 11 13 9 10 10 11 9 9 9 8 8 9 11 12 12 12 11 12 10 11 12 11 11 10
17 16 16 17 18 19 16 12 11 11 10 11 11 12 14 16 16 16 15 13 11 11 9 11 11 13 9 10 12 8 6 7 6 5 11 10 12 10 10 11 11 11 11
7 13 13 15 17 19 19 15 16 14 14 13 13 12 12 17 17 16 16 14 12 9 10 11 11 11 9 7 5 9 9 2 2 5 6 5 6 8 9 8 10 10 11
2 8 11 12 14 16 16 18 15 17 13 12 12 14 14 13 17 18 17 17 15 11 11 12 11 12 10 9 8 5 9 9 9 7 10 7 8 8 8 8 8 8 8
7 4 6 9 14 15 16 20 18 18 16 14 14 13 12 13 14 17 18 16 16 14 14 13 14 14 12 10 8 8 9 8 6 7 8 11 12 10 8 7 9 9 9
Wind_Direction
146 135 149 137 128 136 137 133 134 135 134 129 134 131 134 131 129 128 127 125 123 125 122 121 115 103 105 107 107 111 111 110 109 105 109 111 118 115 113 125 143 101 102
140 143 146 138 132 135 136 134 135 136 134 132 138 134 139 134 129 128 128 129 127 125 123 122 118 110 108 107 110 119 120 119 124 116 118 111 105 103 101 87 74 101 102
142 140 151 141 135 134 134 133 136 137 139 138 140 141 139 138 135 133 129 128 129 129 126 122 118 112 110 113 119 122 122 117 114 137 168 122 105 110 105 101 101 102 103
143 150 145 144 138 133 133 135 138 139 142 143 145 144 142 141 140 141 131 132 134 133 132 128 122 119 119 120 128 127 122 123 136 180 162 120 110 116 115 116 114 116 110
152 153 134 148 143 139 138 140 141 143 147 146 148 149 149 149 147 148 137 131 139 138 136 136 131 129 130 133 125 125 121 114 175 217 105 108 118 113 120 127 127 124 112
160 149 140 149 147 146 144 143 144 148 151 150 155 155 157 158 159 154 146 143 143 142 142 145 146 137 139 139 136 133 123 143 209 105 100 123 90 122 130 116 101 109 111
161 141 154 153 151 149 149 148 148 151 156 157 158 160 159 166 167 162 157 154 158 157 161 157 146 145 148 144 148 143 130 183 217 136 121 113 107 128 122 120 119 123 124
162 146 151 156 156 153 154 153 152 153 159 163 166 166 165 169 176 173 168 172 164 172 164 161 154 148 150 147 148 148 142 232 191 117 120 130 118 142 138 132 134 127 124
162 155 156 164 164 163 160 162 159 161 164 168 169 171 174 175 178 183 185 179 178 170 169 158 152 152 153 150 148 149 173 286 271 120 152 139 133 146 147 143 145 146 141
167 164 164 166 169 171 167 167 167 167 169 171 173 174 175 176 183 186 176 184 182 165 167 164 159 152 157 160 164 159 198 228 232 130 165 91 144 179 169 152 155 158 159
175 171 174 168 173 176 175 170 173 175 178 183 183 175 171 190 177 175 190 165 184 173 165 161 163 160 169 167 172 185 241 212 122 165 136 124 162 198 161 168 177 185 188
180 178 175 179 177 179 182 162 185 180 184 182 200 176 200 179 197 173 172 175 182 181 173 174 167 171 197 178 175 202 239 119 210 169 97 140 182 197 192 191 195 198 207
181 181 177 183 182 186 189 165 194 187 192 167 198 174 199 156 208 163 181 176 175 178 191 185 173 205 205 204 178 200 179 213 188 196 108 151 190 210 212 211 210 211 214
180 185 179 183 182 193 188 171 203 197 193 190 185 195 169 188 177 167 187 185 200 160 244 208 184 201 192 219 219 221 227 261 214 231 135 163 194 213 220 217 215 221 220
181 185 179 192 181 193 195 191 202 203 199 197 172 193 185 196 179 181 194 212 191 155 212 240 204 189 195 218 224 230 238 239 270 272 296 166 194 212 221 223 221 222 227
183 183 183 182 188 191 195 197 200 202 194 212 191 184 206 196 174 176 194 181 202 200 184 193 207 195 203 216 214 232 237 256 248 280 285 180 189 206 218 226 226 223 227
185 185 186 181 192 195 195 193 202 194 217 206 207 192 200 210 183 208 193 207 166 190 216 182 205 202 212 215 233 223 240 243 264 255 272 287 161 194 213 226 234 230 227
187 189 187 183 185 190 195 191 201 200 204 210 211 191 205 202 199 211 202 198 198 188 197 187 203 201 212 213 217 230 225 246 240 256 255 274 256 239 189 212 226 235 234
196 191 190 184 184 192 195 197 201 201 210 205 203 210 185 211 206 219 220 202 197 202 195 195 203 217 204 222 218 222 236 244 237 238 246 256 254 268 271 181 205 223 237
201 197 197 191 186 191 191 201 200 199 207 210 210 205 193 207 208 207 220 219 197 213 201 204 202 192 227 218 232 225 231 236 242 244 247 246 243 247 250 262 222 219 217
202 201 200 197 191 186 193 196 199 205 199 204 212 224 202 206 208 206 227 194 217 225 216 198 199 211 208 222 228 233 245 237 248 252 245 243 256 239 248 260 257 259 244
207 202 200 202 196 196 202 198 201 197 201 207 200 200 209 207 209 214 221 223 204 221 225 219 211 215 214 204 224 236 236 223 223 229 245 254 258 261 257 237 243 258 263
226 192 200 199 201 202 209 202 201 205 213 205 207 207 206 213 211 210 209 228 218 212 220 212 219 225 223 206 210 246 230 239 277 248 217 241 256 251 254 250 250 247 249
203 185 200 203 208 204 202 205 206 207 203 204 206 209 208 210 215 213 217 213 224 231 214 227 213 211 241 227 214 233 245 249 115 306 296 239 239 248 253 269 264 254 247
73 202 194 204 212 214 207 221 200 215 210 206 210 208 206 202 216 217 214 219 216 209 231 230 230 223 208 223 234 230 230 233 239 252 260 269 247 228 239 220 250 265 249
10 274 206 197 212 215 211 212 222 211 222 209 203 206 207 212 203 215 217 217 218 219 211 219 222 229 228 234 221 229 240 230 219 227 244 264 262 263 247 298 287 274 268